SCP
0 0 0 0 0 0 0 0 0 0 0 0 0 0 0 0 0 0 0 0 0 0 0 0 0 0 0 0 0 0 0 0 0 0 0 0 0 0 0 0 0 0 0
0 0 0 0 0 0 0 0 0 0 0 0 0 0 0 0 0 0 0 0 0 0 0 0 0 0 0 0 0 0 0 0 0 0 0 0 0 0 0 0 0 0 0
0 0 0 0 0 0 0 0 0 0 0 0 0 0 0 0 0 0 0 0 0 0 0 0 0 0 0 0 0 0 0 0 0 0 0 0 0 0 0 0 0 0 0
0 0 0 0 0 0 0 0 0 0 0 0 0 0 0 0 0 0 0 0 0 0 0 0 0 0 0 0 0 0 0 0 0 0 0 0 0 0 0 0 0 0 0
0 0 0 0 0 0 0 0 0 0 0 0 0 0 0 0 0 0 0 0 0 0 0 0 0 0 0 0 0 0 0 0 0 0 0 0 0 0 0 0 0 0 0
0 0 0 0 0 0 0 0 0 0 0 0 0 0 0 0 0 0 0 0 0 0 0 0 0 0 0 0 0 0 0 0 0 0 0 0 0 0 0 0 0 0 0
0 0 0 0 0 0 0 0 0 0 0 0 0 0 0 0 0 0 0 0 0 0 0 0 0 0 0 0 0 0 0 0 0 0 0 0 0 0 0 0 0 0 0
0 0 0 0 0 0 0 0 0 0 0 0 0 0 0 0 0 0 0 0 0 0 0 0 0 0 0 0 0 0 0 0 0 0 0 0 0 0 0 0 0 0 0
0 0 0 0 0 0 0 0 0 0 0 0 0 0 0 0 0 0 0 0 0 0 0 0 0 0 0 0 0 0 0 0 0 0 0 0 0 0 0 0 0 0 0
0 0 0 0 0 0 0 0 0 0 0 0 0 0 0 0 0 0 0 0 0 0 0 0 0 0 0 0 0 0 0 0 0 0 0 0 0 0 0 0 0 0 0
0 0 0 0 0 0 0 0 0 0 0 0 0 0 0 0 0 0 0 0 0 0 0 0 0 0 0 0 0 0 0 0 0 0 0 0 0 0 0 0 0 0 0
0 0 0 0 0 0 0 0 0 0 0 0 0 0 0 0 0 0 0 0 0 0 0 0 0 0 0 0 0 0 0 0 0 0 0 0 0 0 0 0 0 0 0
0 0 0 0 0 0 0 0 0 0 0 0 0 0 0 0 0 0 0 0 0 0 0 0 0 0 0 0 0 0 0 0 0 0 0 0 0 0 0 0 0 0 0
0 0 0 0 0 0 0 0 0 0 0 0 0 0 0 0 0 0 0 0 0 0 0 0 0 0 0 0 0 0 0 0 0 0 0 0 0 0 0 0 0 0 0
0 0 0 0 0 0 0 0 0 0 0 0 0 0 0 0 0 0 0 0 0 0 0 0 0 0 0 0 0 0 0 0 0 0 0 0 0 0 0 0 0 0 0
0 0 0 0 0 0 0 0 0 0 0 0 0 0 0 0 0 0 0 0 0 0 0 0 0 0 0 0 0 0 0 0 0 0 0 0 0 0 0 0 0 0 0
0 0 0 0 0 0 0 0 0 0 0 0 0 0 0 0 0 0 0 0 0 0 0 0 0 0 0 0 0 0 0 0 0 0 0 0 0 0 0 0 0 0 0
0 0 0 0 0 0 0 0 0 0 0 0 0 0 0 0 0 0 0 0 0 0 0 0 0 0 0 0 0 0 0 0 0 0 0 0 0 0 0 0 0 0 0
0 0 0 0 0 0 0 0 0 0 0 0 0 0 0 0 0 0 0 0 0 0 0 0 0 0 0 0 0 0 0 0 0 0 0 0 0 0 0 0 0 0 0
0 0 0 0 0 0 0 0 0 0 0 0 0 0 0 0 0 0 0 0 0 0 0 0 0 0 0 0 0 0 0 0 0 0 0 0 0 0 0 0 0 0 0
0 0 0 0 0 0 0 0 0 0 0 0 0 0 0 0 0 0 0 0 0 0 0 0 0 0 0 0 0 0 0 0 0 0 0 0 0 0 0 0 0 0 0
0 0 0 0 0 0 0 0 0 0 0 0 0 0 0 0 0 0 0 0 0 0 0 0 0 0 0 0 0 0 0 0 0 0 0 0 0 0 0 0 0 0 0
0 0 0 0 0 0 0 0 0 0 0 0 0 0 0 0 0 0 0 0 0 0 0 0 0 0 0 0 0 0 0 0 0 0 0 0 0 0 0 0 0 0 0
0 0 0 0 0 0 0 0 0 0 0 0 0 0 0 0 0 0 0 0 0 0 0 0 0 0 0 0 0 0 0 0 0 0 0 0 0 0 0 0 0 0 0
0 0 0 0 0 0 0 0 0 0 0 0 0 0 0 0 0 0 0 0 0 0 0 0 0 0 0 0 0 0 0 0 0 0 0 0 0 0 0 0 0 0 0
0 0 0 0 0 0 0 0 0 0 0 0 0 0 0 0 0 0 0 0 0 0 0 0 0 0 0 0 0 0 0 0 0 0 0 0 0 0 0 0 0 0 0
Wind_Speed
13 12 12 11 11 11 10 10 8 7 7 7 6 5 5 4 4 3 3 3 3 4 4 5 5 5 4 4 4 5 5 5 7 7 6 6 7 6 7 7 8 7 8
12 12 12 11 10 10 10 9 8 7 6 6 5 5 4 4 4 4 5 6 5 5 5 5 5 5 5 4 4 5 5 5 6 8 7 7 7 7 8 8 9 9 7
12 12 11 11 10 10 9 8 8 7 6 5 5 4 4 4 5 6 6 6 6 5 5 5 5 5 5 4 4 5 5 6 5 7 8 6 6 7 8 8 8 7 9
12 11 11 10 9 9 8 7 6 5 5 5 4 5 5 7 8 9 9 8 7 7 6 6 6 5 5 4 5 5 5 6 6 7 7 7 7 7 6 6 7 6 7
10 10 9 8 7 7 6 6 5 5 5 4 4 5 5 6 8 9 8 9 9 9 7 6 7 8 8 5 6 5 6 7 7 7 8 8 8 7 7 6 8 7 8
8 8 7 7 6 5 5 5 5 5 5 5 5 5 5 6 7 9 8 8 9 9 8 7 8 7 5 5 8 10 11 10 9 9 9 9 10 8 7 7 7 8 6
6 6 6 6 5 5 5 5 5 4 4 4 4 4 5 6 5 6 10 9 9 7 7 7 8 7 5 5 8 12 11 13 12 9 10 10 10 8 8 8 7 8 9
6 5 5 4 5 4 5 5 4 3 3 2 3 4 3 4 3 5 12 9 8 6 6 7 6 5 4 6 9 10 10 9 10 8 6 8 9 8 7 8 9 9 9
5 5 5 5 4 4 4 3 2 2 2 2 2 3 2 3 1 4 9 9 6 7 7 7 6 5 4 8 9 10 11 10 11 12 11 12 14 15 11 6 7 7 8
4 4 4 4 3 3 3 2 2 2 2 3 2 2 2 2 3 2 7 7 7 8 7 6 5 5 7 9 9 10 11 11 11 12 12 11 9 8 8 6 5 6 6
4 4 3 2 1 1 2 2 2 2 2 2 2 2 2 2 2 1 5 6 8 9 8 7 5 6 11 13 11 9 11 11 11 10 9 7 6 4 4 3 3 4 5
3 2 2 2 3 3 2 2 2 3 3 3 2 2 2 2 2 1 5 8 8 9 8 7 8 13 16 16 12 11 14 12 7 6 6 5 5 4 4 5 5 4 4
2 1 1 2 2 2 2 3 2 2 3 4 4 4 4 3 2 4 7 10 10 8 7 11 14 17 15 11 10 12 10 6 5 5 5 4 4 4 4 4 5 5 5
2 2 2 2 2 1 1 2 2 3 5 5 5 5 5 4 6 7 8 8 10 9 9 12 15 14 11 9 8 6 4 4 5 4 4 4 4 4 4 4 4 5 4
2 3 3 3 2 1 0 2 3 5 5 5 6 6 6 6 7 8 7 7 8 8 10 8 7 6 6 6 6 5 5 4 4 4 3 3 4 4 4 4 4 4 4
3 3 4 3 2 2 1 3 6 6 8 7 4 4 4 4 8 10 11 12 13 12 8 6 6 6 7 7 7 6 5 5 4 4 3 3 3 3 4 4 4 4 4
3 3 4 4 3 2 1 2 4 4 3 2 1 3 5 7 9 10 11 13 13 10 5 5 6 6 7 7 6 6 5 5 4 3 3 3 3 3 3 3 4 4 4
4 1 3 3 3 3 3 2 2 3 2 2 3 5 6 7 8 10 12 10 6 5 5 5 6 7 7 6 6 6 5 5 4 3 2 2 2 2 3 3 3 5 4
5 1 2 3 2 2 2 3 4 4 3 2 1 1 3 5 6 7 8 5 5 6 6 6 6 7 7 6 6 5 5 5 5 4 3 2 2 2 2 2 2 3 3
1 2 2 3 2 3 3 4 4 4 3 3 3 4 4 4 4 5 4 4 5 5 6 7 7 7 7 6 6 6 5 5 6 5 4 3 2 2 2 2 2 2 2
1 5 4 2 4 4 4 4 4 3 3 3 3 3 4 3 4 5 4 5 5 5 6 7 7 7 7 7 7 7 7 6 6 7 6 4 3 2 2 2 2 2 1
5 2 3 4 4 4 3 3 3 4 4 4 2 1 2 3 4 4 4 5 5 5 6 6 6 6 6 7 7 7 8 8 8 8 8 6 4 3 3 3 3 2 2
2 3 4 3 3 3 1 3 4 4 4 4 3 3 3 4 4 4 4 5 5 5 5 5 5 6 7 7 6 7 8 8 8 9 9 7 5 4 3 3 4 4 4
4 4 3 3 3 4 4 4 4 5 5 4 4 4 4 4 4 5 5 5 5 5 5 5 6 9 11 9 8 8 8 8 9 8 10 8 6 5 4 4 4 5 3
4 4 4 5 5 5 5 5 5 5 5 5 4 4 4 4 5 5 5 5 6 6 7 6 6 9 13 14 13 12 11 11 10 9 8 6 7 7 6 6 5 6 7
6 5 5 5 5 5 5 5 5 5 5 5 5 5 5 4 4 5 5 5 6 5 6 6 10 13 15 12 14 14 13 13 13 12 8 5 6 7 7 5 7 6 7
Wind_Direction
73 74 74 75 76 77 79 79 80 82 82 81 80 76 73 65 48 26 3 5 2 356 342 347 347 338 327 329 322 314 314 320 313 313 316 321 325 313 304 295 290 283 279
78 77 76 76 75 77 79 79 79 77 76 76 74 67 61 56 38 19 5 12 3 355 350 344 336 330 337 321 320 319 315 311 302 304 306 303 300 296 287 283 290 290 290
78 76 74 73 72 73 72 70 70 71 67 63 59 54 43 38 36 27 15 2 351 344 338 327 320 316 308 314 319 309 305 307 307 299 296 293 291 290 292 293 294 292 296
75 74 72 71 71 70 69 66 65 64 64 51 44 39 37 40 38 24 7 347 343 335 322 312 306 303 304 318 311 303 311 316 304 297 295 296 295 293 301 303 302 295 295
75 77 76 78 77 74 69 63 58 51 55 43 38 37 36 59 40 25 357 344 337 322 315 311 307 304 297 287 294 309 309 300 301 298 299 302 300 307 307 305 300 298 289
77 80 78 76 73 70 70 62 55 47 41 34 32 34 37 58 57 30 360 336 319 310 313 318 312 307 324 296 282 283 279 281 289 293 295 294 297 302 304 303 301 302 298
81 80 77 73 66 58 59 58 49 43 42 37 27 28 66 87 54 12 351 324 307 307 315 315 316 328 356 348 326 310 295 287 280 279 282 287 294 299 304 305 302 301 295
82 76 73 70 67 61 55 50 42 32 25 24 26 18 52 99 57 2 341 322 311 316 317 311 313 329 18 353 323 312 304 305 301 294 283 288 295 298 297 294 292 291 287
85 76 62 53 48 49 46 39 30 9 6 1 27 14 22 116 107 356 346 323 324 328 319 322 328 336 19 343 322 312 311 309 312 318 310 295 289 285 282 286 289 292 297
85 72 61 47 36 37 26 7 0 342 347 348 6 351 353 73 147 341 340 330 334 330 321 326 350 345 331 323 317 311 306 309 316 316 311 304 295 288 279 262 275 291 299
88 82 67 33 0 53 6 338 325 330 337 325 331 336 13 47 153 235 323 331 335 326 322 326 327 320 317 312 306 291 289 302 305 300 300 302 306 306 309 303 291 286 298
86 81 55 358 342 27 359 331 330 329 319 318 335 352 21 55 43 334 311 312 312 315 316 322 324 322 315 309 304 292 295 301 294 296 303 311 321 325 325 322 318 309 289
74 40 355 337 330 331 325 326 345 350 346 355 360 1 6 20 26 351 334 324 319 315 320 324 318 312 310 305 300 301 301 297 302 312 318 322 325 321 323 324 327 326 320
6 351 316 297 284 282 307 342 17 14 9 4 7 2 360 10 16 0 344 336 339 337 337 322 313 306 304 301 305 310 307 305 312 316 322 325 331 336 341 338 335 338 343
335 315 303 292 287 260 139 48 47 65 58 25 12 0 360 358 359 338 327 327 327 320 321 310 314 327 335 339 338 336 331 331 333 332 335 341 347 348 347 347 346 351 356
322 314 305 299 301 306 140 121 74 103 112 94 62 5 4 6 332 328 326 321 315 314 316 316 325 332 337 337 335 332 331 334 335 336 348 352 349 352 352 352 360 4 2
311 315 310 319 333 329 333 152 141 127 130 139 227 309 318 324 325 326 328 325 314 313 314 323 331 332 330 330 329 328 326 328 328 337 348 352 350 353 355 358 4 4 4
304 325 295 305 324 337 354 23 87 123 152 184 216 252 290 314 320 324 327 329 331 337 336 335 333 328 324 325 327 329 329 334 342 345 347 359 3 358 2 5 10 8 7
300 342 320 314 320 10 21 35 64 72 74 79 91 200 293 315 312 316 325 334 338 341 340 337 331 325 324 327 330 335 342 350 354 356 355 357 4 8 11 14 22 14 10
204 112 302 315 3 47 50 50 59 62 52 49 45 27 4 350 349 346 344 341 341 340 337 334 328 325 330 336 340 347 356 3 359 359 358 355 355 6 10 17 22 26 25
66 156 210 303 47 38 39 51 57 54 55 57 55 42 349 340 348 346 345 344 342 336 332 328 326 332 341 343 348 356 5 5 2 356 353 354 358 7 6 6 18 38 48
325 36 86 66 63 47 23 41 61 61 63 62 77 92 318 336 1 357 351 345 338 330 327 326 331 340 345 347 356 3 5 3 356 349 345 345 349 7 12 8 8 24 39
294 37 78 84 92 124 78 59 60 60 64 60 51 44 38 20 9 360 351 342 335 334 332 334 339 351 359 359 3 14 8 354 338 332 338 340 349 2 7 4 14 28 34
24 37 60 75 71 81 71 68 66 62 63 62 52 44 38 27 12 0 352 342 335 335 339 346 357 8 15 15 7 11 7 346 332 328 330 334 351 2 4 9 16 24 34
36 36 57 68 59 66 69 70 67 62 61 62 56 47 40 29 16 5 355 347 347 351 359 6 16 17 13 16 13 4 350 343 345 339 328 341 8 12 9 14 21 24 27
44 37 56 73 67 59 66 73 72 68 64 63 62 56 46 35 24 9 359 354 356 2 8 16 30 30 16 8 4 358 352 350 349 344 338 355 18 22 14 16 27 31 37